Погода в Посёлке Челюскинцев

Россия / Тюменская область     55°45′44″N   69°37′46″E
темп.,
°C
ветер,
м/с
пор.,
м/с
влажн.,
%
обл.,
%
осадки,
мм/ч
давл.,
гПа
погр.,
м
28 сентября, вт
вт2823:00+4всв71275100 0.0 1024820
02:00+3всв61377100 0.0 1024556
05:00+4всв71263100 0.0 1023753
08:00+5всв71158100 0.0 10221202
11:00+7в81150100 0.0 10211544
14:00+8в81042100 0.0 10191679
17:00+7всв61047100 0.0 10181408
20:00+6всв61264100 0.0 1018655
29 сентября, ср
ср2923:00+4св41073100 0.0 1018381
02:00+3ссв51076100 0.0 1017256
05:00+2ссв4108199 0.0 1018241
08:00+3ссв598280 0.0 1018335
11:00+7ссв575866 0.1 10181264
14:00+7ссв5653100 0.1 10191259
17:00+7ссв4657100 0.1 10191149
20:00+3ссв378367 0.1 1020196
30 сентября, чт
чт3023:00+1с379343 0.1 1021152
02:00+1ссв3693100 0.0 1021271
05:00+2с3593100 0.0 1021376
08:00+3с3586100 0.0 1021446
11:00+4с2470100 0.1 1020835
14:00+5ссз3458100 0.1 10201167
17:00+5сз3559100 0.1 1019983
20:00+2з367877 0.0 1019110
1 октября, пт
пт123:00+1зсз378285 0.0 1018146
02:000з3780100 0.0 1017146
05:00+1з41070100 0.0 1015277
08:00+3зсз5967100 0.0 1015553
11:00+2сз4999100 0.6 1015436
14:00+2с698799 0.4 1018754
17:00+2ссз697096 0.4 1020962
20:00+1сз5118183 0.0 1022509
2 октября, сб
сб223:00−1сз510925 0.1 1024358
02:00−3зсз4995100 0.0 1025213
05:00−2зсз4993100 0.0 1025235
08:000зсз4982100 0.0 1026362
11:00+4зсз675795 0.0 10261399
14:00+6зсз5749100 0.0 10251540
17:00+6зсз4751100 0.0 1025346
20:00+3ссз236672 0.0 102639